timestamp,surface_pressure_avg,surface_temp_avg,battery_voltage,lat,long
2018-09-05 00:00:00+00:00,230.4365,18.15,13.05,47.84626,-54.09684
2018-09-05 00:10:00+00:00,227.7181,18.17,12.97,47.84626,-54.09684
2018-09-05 00:20:00+00:00,227.4264,18.17,13.05,47.84626,-54.09684
2018-09-05 00:30:00+00:00,226.7314,18.15,13.05,47.84626,-54.09684
2018-09-05 00:40:00+00:00,222.8514,18.15,13.05,47.84626,-54.09684
2018-09-05 00:50:00+00:00,221.7898,18.15,13.05,47.84626,-54.09684
2018-09-05 01:00:00+00:00,222.8448,18.13,13.05,47.84626,-54.09684
2018-09-05 01:10:00+00:00,219.5998,18.1,12.97,47.84626,-54.09684
2018-09-05 01:20:00+00:00,216.0714,18.1,13.05,47.84626,-54.09684
2018-09-05 01:30:00+00:00,216.5314,18.1,13.05,47.84626,-54.09684
2018-09-05 01:40:00+00:00,219.6815,18.1,13.05,47.84626,-54.09684
2018-09-05 01:50:00+00:00,218.7965,18.1,13.05,47.84626,-54.09684
2018-09-05 02:00:00+00:00,217.9681,18.1,12.97,47.84626,-54.09684
2018-09-05 02:10:00+00:00,221.0098,18.1,12.89,47.84626,-54.09684
2018-09-05 02:20:00+00:00,222.7581,18.09,12.97,47.84626,-54.09684
2018-09-05 02:30:00+00:00,225.7197,18.02,12.97,47.84626,-54.09684
2018-09-05 02:40:00+00:00,228.313,18.0,12.97,47.84626,-54.09684
2018-09-05 02:50:00+00:00,228.7965,18.0,12.97,47.84626,-54.09684
2018-09-05 03:00:00+00:00,234.8581,18.0,12.97,47.84626,-54.09684
2018-09-05 03:10:00+00:00,240.2148,18.0,12.89,47.84626,-54.09684
2018-09-05 03:20:00+00:00,243.4981,18.0,12.97,47.84626,-54.09684
2018-09-05 03:30:00+00:00,246.6681,18.0,12.97,47.84626,-54.09684
2018-09-05 03:40:00+00:00,253.1381,18.07,12.97,47.84626,-54.09684
2018-09-05 03:50:00+00:00,260.4698,18.09,12.97,47.84626,-54.09684
2018-09-05 04:00:00+00:00,266.3898,18.1,12.89,47.84626,-54.09684
2018-09-05 04:10:00+00:00,272.593,18.1,12.81,47.84626,-54.09684
2018-09-05 04:20:00+00:00,279.3664,18.06,12.89,47.84626,-54.09684
2018-09-05 04:30:00+00:00,285.6163,18.05,12.89,47.84626,-54.09684
2018-09-05 04:40:00+00:00,287.4896,18.0,12.97,47.84626,-54.09684
2018-09-05 04:50:00+00:00,293.2847,18.0,12.97,47.84626,-54.09684
2018-09-05 05:00:00+00:00,301.653,18.0,12.89,47.84626,-54.09684
2018-09-05 05:10:00+00:00,304.9747,18.0,12.81,47.84626,-54.09684
2018-09-05 05:20:00+00:00,306.9013,18.0,12.89,47.84626,-54.09684
2018-09-05 05:30:00+00:00,313.7797,18.0,12.89,47.84626,-54.09684
2018-09-05 05:40:00+00:00,316.7762,18.0,12.89,47.84626,-54.09684
2018-09-05 05:50:00+00:00,317.2046,18.0,12.97,47.84626,-54.09684
2018-09-05 06:00:00+00:00,318.7714,18.0,12.89,47.84626,-54.09684
2018-09-05 06:10:00+00:00,324.0547,18.0,12.81,47.84626,-54.09684
2018-09-05 06:20:00+00:00,325.5646,18.0,12.89,47.84626,-54.09684
2018-09-05 06:30:00+00:00,325.1197,18.0,12.89,47.84626,-54.09684
2018-09-05 06:40:00+00:00,327.2413,18.0,12.89,47.84626,-54.09684
2018-09-05 06:50:00+00:00,329.5096,18.0,12.97,47.84626,-54.09684
2018-09-05 07:00:00+00:00,331.2662,18.0,12.89,47.84626,-54.09684
2018-09-05 07:10:00+00:00,328.4046,18.0,12.81,47.84626,-54.09684
2018-09-05 07:20:00+00:00,330.3278,18.0,12.89,47.84626,-54.09684
2018-09-05 07:30:00+00:00,330.6696,18.0,12.89,47.84626,-54.09684
2018-09-05 07:40:00+00:00,329.6563,18.0,12.89,47.84626,-54.09684
2018-09-05 07:50:00+00:00,328.2596,18.0,12.89,47.84626,-54.09684
2018-09-05 08:00:00+00:00,326.8347,17.99,12.89,47.84626,-54.09684
2018-09-05 08:10:00+00:00,324.3163,17.99,12.81,47.84626,-54.09684
2018-09-05 08:20:00+00:00,322.2496,17.99,12.89,47.84626,-54.09684
2018-09-05 08:30:00+00:00,316.6363,17.99,12.89,47.84626,-54.09684
2018-09-05 08:40:00+00:00,308.6047,17.98,12.89,47.84626,-54.09684
2018-09-05 08:50:00+00:00,303.1263,17.98,12.89,47.84626,-54.09684
2018-09-05 09:00:00+00:00,303.888,17.98,12.89,47.84626,-54.09684
2018-09-05 09:10:00+00:00,299.0214,17.96,12.81,47.84626,-54.09684
2018-09-05 09:20:00+00:00,290.5814,17.95,12.97,47.84626,-54.09684
2018-09-05 09:30:00+00:00,283.6497,17.95,13.13,47.84626,-54.09684
2018-09-05 09:40:00+00:00,283.0164,17.93,13.44,47.84626,-54.09684
2018-09-05 09:50:00+00:00,279.4381,17.93,13.68,47.84626,-54.09684
2018-09-05 10:00:00+00:00,273.2697,17.9,13.84,47.84626,-54.09684
2018-09-05 10:10:00+00:00,268.4447,17.9,13.92,47.84626,-54.09684
2018-09-05 10:20:00+00:00,265.8697,17.9,14.32,47.84626,-54.09684
2018-09-05 10:30:00+00:00,259.7097,17.9,14.64,47.84626,-54.09684
2018-09-05 10:40:00+00:00,252.1047,17.9,15.6,47.84626,-54.09684
2018-09-05 10:50:00+00:00,250.0798,17.9,15.83,47.84626,-54.09684
2018-09-05 11:00:00+00:00,251.1297,17.9,14.72,47.84626,-54.09684
2018-09-05 11:10:00+00:00,243.8814,17.9,14.64,47.84626,-54.09684
2018-09-05 11:20:00+00:00,238.6464,17.9,15.75,47.84626,-54.09684
2018-09-05 11:30:00+00:00,244.2181,17.9,14.96,47.84626,-54.09684
2018-09-05 11:40:00+00:00,245.9064,17.9,15.04,47.84626,-54.09684
2018-09-05 11:50:00+00:00,242.3898,17.9,14.88,47.84626,-54.09684
2018-09-05 12:00:00+00:00,240.713,17.9,14.64,47.84626,-54.09684
2018-09-05 12:10:00+00:00,241.2231,17.9,14.64,47.84626,-54.09684
2018-09-05 12:20:00+00:00,239.1497,17.91,14.8,47.84626,-54.09684
2018-09-05 12:30:00+00:00,238.6581,17.93,14.72,47.84626,-54.09684
2018-09-05 12:40:00+00:00,238.6565,17.93,14.72,47.84626,-54.09684
2018-09-05 12:50:00+00:00,235.9847,17.98,14.56,47.84626,-54.09684
2018-09-05 13:00:00+00:00,235.5447,18.0,14.56,47.84626,-54.09684
2018-09-05 13:10:00+00:00,239.0947,17.99,14.56,47.84626,-54.09684
2018-09-05 13:20:00+00:00,238.2764,17.99,14.48,47.84626,-54.09684
2018-09-05 13:30:00+00:00,234.6181,17.99,14.48,47.84626,-54.09684
2018-09-05 13:40:00+00:00,235.6164,17.99,14.72,47.84626,-54.09684
2018-09-05 13:50:00+00:00,237.5898,17.97,14.64,47.84626,-54.09684
2018-09-05 14:00:00+00:00,235.9231,17.98,14.56,47.84626,-54.09684
2018-09-05 14:10:00+00:00,234.8881,17.99,14.56,47.84626,-54.09684
2018-09-05 14:20:00+00:00,237.0748,17.98,14.56,47.84626,-54.09684
2018-09-05 14:30:00+00:00,239.8264,17.95,14.48,47.84626,-54.09684
2018-09-05 14:40:00+00:00,241.5814,17.96,14.56,47.84626,-54.09684
2018-09-05 14:50:00+00:00,245.5997,17.95,14.56,47.84626,-54.09684
2018-09-05 15:00:00+00:00,248.8848,17.97,14.48,47.84626,-54.09684
2018-09-05 15:10:00+00:00,251.3448,17.97,14.24,47.84626,-54.09684
2018-09-05 15:20:00+00:00,255.0414,17.95,14.4,47.84626,-54.09684
2018-09-05 15:30:00+00:00,261.3447,17.9,14.48,47.84626,-54.09684
2018-09-05 15:40:00+00:00,267.4831,17.9,14.48,47.84626,-54.09684
2018-09-05 15:50:00+00:00,273.0081,17.88,14.4,47.84626,-54.09684
2018-09-05 16:00:00+00:00,276.0747,17.91,14.4,47.84626,-54.09684
2018-09-05 16:10:00+00:00,281.2596,17.96,14.32,47.84626,-54.09684
2018-09-05 16:20:00+00:00,285.6597,17.9,14.4,47.84626,-54.09684
2018-09-05 16:30:00+00:00,293.483,17.9,14.24,47.84626,-54.09684
2018-09-05 16:40:00+00:00,300.4914,17.9,14.24,47.84626,-54.09684
2018-09-05 16:50:00+00:00,306.9363,17.94,14.32,47.84626,-54.09684
2018-09-05 17:00:00+00:00,311.9031,17.94,14.24,47.84626,-54.09684
2018-09-05 17:10:00+00:00,318.7247,17.97,14.24,47.84626,-54.09684
2018-09-05 17:20:00+00:00,323.2663,17.98,14.32,47.84626,-54.09684
2018-09-05 17:30:00+00:00,328.0796,18.0,14.24,47.84626,-54.09684
2018-09-05 17:40:00+00:00,334.018,17.99,14.32,47.84626,-54.09684
2018-09-05 17:50:00+00:00,337.8912,18.0,14.32,47.84626,-54.09684
2018-09-05 18:00:00+00:00,339.5162,18.0,14.16,47.84626,-54.09684
2018-09-05 18:10:00+00:00,344.8863,17.97,14.08,47.84626,-54.09684
2018-09-05 18:20:00+00:00,348.1013,17.82,14.24,47.84626,-54.09684
2018-09-05 18:30:00+00:00,347.8579,17.9,14.16,47.84626,-54.09684
2018-09-05 18:40:00+00:00,351.0846,17.8,14.16,47.84626,-54.09684
2018-09-05 18:50:00+00:00,355.0296,17.83,14.16,47.84626,-54.09684
2018-09-05 19:00:00+00:00,355.2947,17.87,14.08,47.84626,-54.09684
2018-09-05 19:10:00+00:00,352.1428,17.89,13.92,47.84626,-54.09684
2018-09-05 19:20:00+00:00,355.0363,17.9,14.0,47.84626,-54.09684
2018-09-05 19:30:00+00:00,359.4014,17.9,13.92,47.84626,-54.09684
2018-09-05 19:40:00+00:00,356.8262,17.9,13.92,47.84626,-54.09684
2018-09-05 19:50:00+00:00,356.5613,17.95,13.92,47.84626,-54.09684
2018-09-05 20:00:00+00:00,357.1195,18.0,13.84,47.84626,-54.09684
2018-09-05 20:10:00+00:00,355.9046,18.0,13.76,47.84626,-54.09684
2018-09-05 20:20:00+00:00,355.7745,18.04,13.84,47.84626,-54.09684
2018-09-05 20:30:00+00:00,356.663,18.1,13.76,47.84626,-54.09684
2018-09-05 20:40:00+00:00,355.878,18.14,13.76,47.84626,-54.09684
2018-09-05 20:50:00+00:00,350.5812,18.1,13.76,47.84626,-54.09684
2018-09-05 21:00:00+00:00,348.4796,18.1,13.68,47.84626,-54.09684
2018-09-05 21:10:00+00:00,347.0764,18.1,13.53,47.84626,-54.09684
2018-09-05 21:20:00+00:00,340.9579,18.18,13.53,47.84626,-54.09684
2018-09-05 21:30:00+00:00,337.0779,18.18,13.53,47.84626,-54.09684
2018-09-05 21:40:00+00:00,334.6229,18.19,13.53,47.84626,-54.09684
2018-09-05 21:50:00+00:00,328.0397,18.19,13.44,47.84626,-54.09684
2018-09-05 22:00:00+00:00,319.8497,18.18,13.37,47.84626,-54.09684
2018-09-05 22:10:00+00:00,316.6763,18.19,13.29,47.84626,-54.09684
2018-09-05 22:20:00+00:00,311.0714,18.2,13.29,47.84626,-54.09684
2018-09-05 22:30:00+00:00,300.0814,18.2,13.21,47.84626,-54.09684
2018-09-05 22:40:00+00:00,293.4747,18.2,13.21,47.84626,-54.09684
2018-09-05 22:50:00+00:00,289.6198,18.2,13.21,47.84626,-54.09684
2018-09-05 23:00:00+00:00,280.1864,18.2,13.13,47.84626,-54.09684
2018-09-05 23:10:00+00:00,273.9964,18.2,13.05,47.84626,-54.09684
2018-09-05 23:20:00+00:00,269.7531,18.2,13.13,47.84626,-54.09684
2018-09-05 23:30:00+00:00,263.3997,18.2,13.13,47.84626,-54.09684
2018-09-05 23:40:00+00:00,257.3665,18.2,13.13,47.84626,-54.09684
2018-09-05 23:50:00+00:00,255.8664,18.2,13.13,47.84626,-54.09684
